Temp
61 62 63 62 62 62 62 62 62 62 62 61 61 61 61 61 61 55 51 60 61 67 65 56 56 55 54 51 52 49 41 36 41 44 48 49 49 53 55 53 52 55 54 54 56
62 62 62 62 62 62 61 61 61 61 61 61 61 61 61 61 52 49 61 67 68 67 56 53 50 53 49 49 49 46 38 42 47 46 47 49 49 50 52 51 52 53 54 55 55
62 62 61 61 61 61 61 61 61 61 61 60 60 60 60 57 46 49 65 66 67 65 58 57 55 53 45 46 47 44 41 45 49 51 51 50 50 51 49 49 54 55 55 53 53
61 61 61 61 62 62 60 61 61 60 60 60 60 60 59 50 36 53 65 66 66 60 57 54 52 48 44 43 46 41 47 48 50 51 50 48 51 50 50 52 56 54 55 54 53
59 59 60 60 61 61 61 60 60 60 60 59 60 60 51 40 43 57 62 62 58 56 54 52 48 46 43 43 46 41 44 48 51 50 49 51 49 49 51 56 57 55 55 55 54
59 58 58 59 60 60 61 61 60 60 60 61 60 59 46 33 54 56 55 57 56 53 51 51 50 50 45 44 45 46 46 48 48 48 49 47 46 49 54 53 55 56 56 55 54
58 58 58 58 59 60 60 61 60 60 59 60 61 55 45 42 54 54 55 53 54 54 50 52 52 50 48 43 48 45 42 44 45 47 48 48 45 44 56 53 55 56 55 55 54
57 57 57 58 58 59 59 60 60 59 59 60 60 53 42 53 52 52 54 52 55 55 53 54 54 49 45 46 45 40 39 34 43 47 49 50 41 47 50 50 51 53 54 54 55
56 56 56 57 57 58 58 59 59 59 59 59 51 47 41 56 46 51 52 50 51 52 52 59 52 44 44 37 33 33 28 32 39 46 47 45 37 49 49 49 49 49 49 50 51
56 56 56 57 57 57 57 58 59 57 55 55 52 43 46 42 48 50 51 52 48 48 48 45 41 36 33 32 28 29 29 32 33 41 41 40 39 45 46 47 48 48 49 48 49
55 55 55 56 56 57 56 50 43 40 45 39 38 40 44 48 51 46 49 47 50 46 35 39 34 31 33 35 35 34 32 32 34 41 39 38 39 42 48 44 44 46 47 49 50
54 55 55 55 56 56 53 45 45 44 35 42 42 44 48 50 41 45 50 41 42 37 41 34 33 37 39 38 36 34 32 30 35 40 37 35 36 40 44 46 46 47 47 49 51
54 54 54 54 55 52 47 47 52 50 34 36 41 41 41 46 38 39 46 41 37 38 38 32 32 40 38 33 33 31 31 31 32 36 36 35 37 39 43 46 48 47 49 50 51
54 53 54 54 47 47 44 52 52 48 28 30 33 38 42 43 38 47 47 42 41 34 38 38 39 35 32 33 34 30 35 35 33 31 24 32 22 30 36 42 44 46 47 49 51
53 53 54 54 44 42 46 51 48 42 17 33 33 46 43 38 38 39 47 44 33 34 37 31 31 33 32 34 36 32 37 34 33 30 26 27 23 25 33 37 41 45 46 47 48
52 52 53 47 46 47 49 48 42 25 16 27 33 32 33 37 35 38 40 45 41 35 33 33 35 35 34 36 39 38 34 33 30 28 20 28 27 23 32 39 42 42 45 48 48
52 52 49 47 40 48 47 41 24 19 30 26 28 33 32 32 34 34 34 33 31 26 27 33 31 34 37 32 34 33 30 23 21 21 19 28 25 35 36 40 41 44 46 47 46
51 51 49 47 47 45 42 29 16 25 26 32 31 32 28 33 33 33 31 30 35 28 26 24 21 31 36 33 31 32 31 21 12 15 19 29 23 31 40 46 48 46 45 45 45
51 43 40 43 45 45 33 21 21 26 32 30 31 26 27 32 29 30 28 29 33 32 24 24 24 31 35 37 36 29 28 35 25 15 19 22 29 37 39 40 42 42 44 45 45
40 36 37 44 44 38 28 24 25 31 33 34 25 27 20 26 25 26 26 32 31 36 35 30 22 32 33 36 36 32 36 25 24 10 11 20 24 29 33 34 39 38 41 42 43
37 30 37 43 42 31 20 24 27 35 35 31 27 21 26 26 26 27 26 29 37 32 36 31 27 25 31 28 28 29 30 30 29 25 19 16 23 32 36 40 37 38 42 42 43
32 25 35 42 26 25 22 26 33 32 34 33 34 30 27 28 25 24 24 31 36 35 29 33 28 20 22 28 31 32 31 31 25 20 25 28 26 38 38 38 37 39 41 41 42
27 24 37 38 19 19 21 25 29 30 32 30 30 33 32 29 24 26 27 34 36 35 30 33 25 18 17 25 26 22 30 32 32 31 24 21 23 40 37 37 37 37 42 45 39
26 20 26 31 22 22 20 23 23 33 32 31 30 32 31 27 24 22 28 31 34 35 41 39 17 20 16 22 26 21 25 30 29 22 24 26 28 36 39 39 41 39 39 40 42
27 21 22 18 22 21 25 27 23 24 31 32 29 31 30 20 20 16 24 28 30 38 34 29 14 18 22 27 28 25 27 26 24 26 22 28 28 34 38 35 36 38 39 40 41
24 24 26 21 24 25 25 22 25 29 29 27 27 33 31 24 27 24 28 27 28 29 28 30 10 10 10 25 24 22 26 27 27 28 26 28 29 38 31 32 31 34 36 37 40
31 32 25 28 24 24 24 25 28 31 30 33 35 31 26 31 35 33 36 32 32 29 21 20 15 7 4 10 16 16 21 28 28 29 30 24 30 28 27 29 30 31 31 32 35
MSLP
1017.73 1017.60 1017.39 1017.34 1017.36 1017.33 1017.27 1017.33 1017.24 1017.25 1017.16 1017.11 1017.12 1017.09 1017.07 1016.90 1016.65 1016.41 1016.07 1015.18 1014.83 1014.50 1014.69 1014.99 1015.01 1015.05 1015.23 1015.71 1015.92 1016.38 1017.36 1017.42 1016.51 1015.74 1014.18 1013.31 1012.98 1012.58 1012.41 1012.32 1012.32 1012.63 1013.09 1013.84 1014.17
1017.08 1017.25 1017.28 1017.17 1017.07 1017.06 1017.21 1017.23 1017.18 1017.24 1017.22 1017.25 1017.16 1017.11 1016.89 1016.80 1016.73 1016.03 1014.98 1014.50 1014.65 1014.68 1014.72 1015.06 1015.35 1015.41 1015.72 1015.81 1016.11 1016.41 1016.95 1016.24 1015.36 1014.71 1013.91 1013.34 1013.11 1012.89 1012.68 1012.55 1012.71 1012.89 1013.30 1013.98 1014.70
1016.44 1016.55 1016.73 1016.91 1017.02 1016.90 1016.86 1017.06 1017.06 1017.07 1017.13 1017.16 1017.14 1017.06 1017.00 1016.87 1016.73 1015.11 1014.31 1014.07 1014.16 1014.61 1014.83 1014.99 1015.30 1015.66 1016.07 1016.12 1016.16 1016.20 1016.12 1015.60 1014.72 1014.19 1013.82 1013.60 1013.32 1013.10 1012.96 1012.86 1012.76 1012.93 1013.47 1014.29 1014.68
1015.98 1015.97 1016.00 1016.06 1016.42 1016.60 1016.69 1016.79 1016.88 1016.91 1016.99 1017.05 1017.00 1016.98 1016.98 1017.06 1016.50 1014.68 1014.35 1014.05 1014.17 1014.57 1015.01 1015.17 1015.52 1016.00 1016.19 1016.33 1016.05 1016.21 1015.58 1015.38 1014.74 1014.30 1014.04 1013.86 1013.67 1013.50 1013.25 1012.88 1012.79 1013.07 1013.36 1014.18 1014.84
1015.45 1015.55 1015.59 1015.85 1015.91 1015.99 1016.22 1016.61 1016.74 1016.69 1016.57 1016.69 1016.84 1016.85 1017.04 1017.32 1016.12 1014.74 1014.54 1014.43 1014.58 1015.01 1015.04 1015.36 1015.69 1015.87 1016.16 1016.11 1016.03 1016.09 1015.61 1015.23 1014.88 1014.75 1014.62 1014.22 1013.98 1013.90 1013.38 1013.04 1013.11 1013.35 1013.65 1014.03 1014.48
1014.68 1014.95 1015.10 1015.31 1015.44 1015.58 1015.63 1015.82 1016.20 1016.32 1016.33 1016.28 1016.49 1016.77 1017.14 1017.22 1015.46 1015.11 1014.91 1014.53 1014.83 1014.96 1015.28 1015.21 1015.26 1015.58 1015.77 1015.90 1015.98 1015.55 1015.44 1015.30 1015.03 1014.92 1014.81 1014.76 1014.42 1014.25 1012.90 1012.70 1013.04 1013.33 1013.59 1013.86 1014.23
1014.21 1014.21 1014.46 1014.61 1014.91 1014.99 1015.24 1015.39 1015.72 1015.94 1016.05 1016.13 1016.11 1016.60 1016.58 1015.48 1015.13 1015.29 1015.18 1015.31 1015.09 1014.96 1015.02 1015.20 1015.01 1015.23 1015.61 1015.95 1015.66 1015.67 1015.83 1015.42 1015.14 1015.02 1014.96 1014.95 1014.42 1014.03 1012.81 1012.98 1013.04 1013.27 1013.53 1013.74 1013.91
1013.68 1013.71 1013.72 1013.87 1014.11 1014.41 1014.68 1015.01 1015.33 1015.53 1015.64 1015.80 1015.92 1016.35 1015.24 1014.65 1014.62 1015.45 1015.11 1015.33 1015.06 1014.80 1014.86 1014.86 1015.02 1015.38 1015.74 1016.06 1016.25 1016.24 1016.28 1015.99 1015.17 1014.96 1014.77 1014.88 1013.33 1013.22 1013.05 1013.46 1013.47 1013.37 1013.55 1013.54 1013.39
1013.20 1013.24 1013.24 1013.25 1013.44 1013.75 1014.12 1014.49 1014.83 1015.02 1015.31 1015.51 1016.00 1016.47 1015.01 1014.20 1014.58 1014.62 1015.06 1015.11 1014.98 1014.75 1014.75 1014.88 1015.22 1015.80 1016.09 1016.75 1017.30 1017.18 1016.68 1016.42 1015.86 1015.07 1014.79 1014.94 1013.92 1013.25 1013.06 1013.45 1013.56 1013.49 1013.60 1013.74 1013.40
1012.69 1012.72 1012.71 1012.75 1012.84 1013.13 1013.55 1014.16 1014.47 1014.79 1015.25 1015.65 1015.94 1016.44 1014.66 1014.15 1013.96 1014.27 1014.58 1014.96 1014.99 1015.15 1015.16 1015.47 1015.96 1016.46 1016.72 1017.00 1016.72 1017.47 1017.39 1016.54 1016.00 1015.49 1015.33 1015.02 1014.34 1013.87 1013.60 1013.83 1013.80 1013.64 1013.50 1013.54 1013.38
1012.24 1012.28 1012.28 1012.23 1012.37 1012.48 1013.17 1013.89 1014.48 1014.80 1014.63 1014.35 1014.49 1014.12 1013.66 1013.89 1013.88 1014.16 1014.49 1015.04 1015.03 1015.37 1015.60 1015.86 1016.59 1015.67 1016.11 1016.50 1016.75 1017.19 1017.29 1017.02 1016.36 1015.82 1015.75 1015.48 1015.05 1014.66 1013.73 1013.79 1013.84 1013.66 1013.42 1013.01 1012.73
1011.51 1011.66 1011.53 1012.06 1011.92 1012.11 1012.30 1011.85 1012.24 1012.86 1013.99 1014.38 1014.25 1014.18 1013.56 1013.77 1014.28 1014.14 1014.25 1014.95 1015.04 1015.11 1015.85 1016.40 1015.30 1016.07 1016.33 1016.80 1017.14 1017.22 1017.49 1017.40 1017.03 1016.51 1016.27 1015.81 1014.89 1014.71 1013.86 1012.90 1012.91 1012.94 1012.92 1012.58 1012.15
1010.81 1010.99 1011.23 1011.58 1011.55 1011.65 1011.40 1010.88 1011.78 1012.46 1013.20 1013.46 1013.19 1013.31 1013.48 1013.81 1014.28 1014.02 1014.16 1014.50 1014.85 1015.08 1015.41 1015.72 1015.64 1015.74 1016.53 1017.03 1017.35 1017.23 1017.21 1017.60 1017.61 1017.19 1016.71 1016.53 1014.21 1013.61 1012.75 1011.81 1011.77 1011.94 1011.83 1011.86 1011.56
1010.09 1010.31 1010.62 1011.22 1011.68 1011.15 1010.68 1011.11 1011.23 1012.28 1013.19 1012.32 1012.48 1011.76 1012.60 1013.35 1013.32 1013.42 1013.55 1014.05 1014.59 1014.79 1015.60 1015.80 1015.83 1015.95 1016.36 1016.85 1017.14 1017.29 1016.95 1017.54 1017.97 1018.48 1018.44 1017.45 1015.53 1013.70 1012.66 1012.08 1011.44 1011.24 1011.18 1010.96 1010.93
1009.38 1009.66 1009.98 1010.54 1010.43 1010.50 1010.67 1010.74 1010.84 1012.70 1011.20 1010.06 1010.98 1010.20 1010.77 1012.12 1011.91 1012.05 1012.84 1013.59 1014.10 1014.54 1015.23 1015.08 1015.43 1016.06 1016.42 1016.35 1016.88 1016.61 1016.64 1017.37 1018.11 1018.67 1018.91 1018.21 1017.99 1013.58 1012.97 1012.25 1011.28 1010.75 1010.52 1010.42 1010.67
1008.56 1009.00 1009.47 1009.83 1010.07 1010.19 1010.57 1011.01 1011.38 1011.43 1009.60 1009.98 1009.95 1010.34 1010.98 1011.43 1011.83 1012.32 1012.89 1013.28 1013.97 1014.83 1015.08 1015.41 1015.41 1015.44 1015.49 1016.08 1016.34 1016.59 1017.04 1017.65 1018.45 1019.09 1019.01 1016.99 1017.55 1013.81 1012.74 1011.50 1010.74 1010.22 1010.21 1010.23 1010.32
1007.75 1008.26 1008.83 1009.22 1009.44 1010.12 1010.39 1011.03 1010.30 1008.19 1008.95 1009.27 1009.19 1009.66 1010.25 1010.55 1011.73 1012.04 1012.65 1013.04 1013.28 1014.31 1014.74 1015.39 1015.60 1015.34 1015.33 1015.99 1016.36 1016.48 1016.76 1018.04 1018.83 1018.88 1017.49 1016.14 1016.82 1012.89 1011.82 1010.70 1010.54 1010.31 1010.19 1009.98 1010.24
1006.92 1007.52 1007.84 1008.46 1008.88 1009.64 1010.12 1010.18 1007.90 1006.73 1007.35 1008.15 1008.24 1009.30 1009.63 1010.38 1011.51 1011.81 1012.23 1012.69 1013.18 1013.53 1014.11 1014.74 1015.44 1015.14 1014.91 1014.89 1015.21 1015.91 1015.97 1016.39 1017.12 1017.64 1016.93 1016.36 1015.43 1011.68 1010.93 1010.13 1009.94 1010.04 1010.14 1010.12 1010.06
1006.11 1006.68 1007.56 1007.72 1008.25 1008.95 1009.17 1007.24 1006.25 1006.38 1006.22 1007.12 1008.50 1008.66 1009.66 1010.27 1010.56 1011.62 1011.95 1012.33 1012.56 1013.16 1013.64 1014.30 1014.66 1014.37 1014.38 1014.44 1014.57 1016.04 1015.86 1015.05 1016.54 1016.96 1016.74 1015.65 1013.63 1011.53 1010.56 1010.31 1010.15 1010.39 1010.49 1010.68 1010.61
1005.34 1005.92 1006.39 1006.78 1007.53 1008.61 1007.48 1005.93 1006.06 1005.89 1006.44 1006.15 1006.43 1007.58 1008.18 1009.32 1010.15 1011.04 1011.64 1011.46 1012.05 1012.49 1012.76 1013.69 1014.37 1014.16 1014.40 1014.63 1014.52 1014.61 1014.82 1015.86 1016.50 1016.78 1016.16 1014.84 1013.51 1011.67 1010.82 1010.69 1010.48 1010.80 1010.99 1010.93 1010.87
1004.47 1005.52 1004.65 1006.03 1007.37 1007.68 1006.39 1005.68 1005.70 1005.72 1005.58 1006.04 1005.52 1006.64 1007.16 1008.14 1009.11 1009.83 1010.21 1010.70 1010.91 1011.90 1012.74 1013.26 1013.86 1014.88 1014.70 1014.47 1014.00 1014.82 1014.96 1015.23 1015.28 1015.57 1015.03 1014.24 1012.31 1010.71 1010.39 1010.36 1010.63 1010.96 1010.94 1011.17 1010.93
1002.36 1004.32 1004.56 1005.19 1006.62 1006.09 1006.03 1006.09 1004.97 1004.93 1005.74 1005.64 1004.81 1004.90 1005.96 1007.43 1008.70 1009.83 1009.68 1009.22 1009.91 1010.99 1012.22 1012.68 1013.94 1015.05 1015.12 1014.63 1014.25 1014.39 1014.36 1014.59 1014.45 1014.61 1014.21 1013.24 1011.56 1010.28 1010.16 1010.63 1010.89 1011.04 1011.12 1011.03 1010.93
1002.77 1003.83 1004.83 1004.58 1005.30 1005.89 1006.21 1005.83 1006.00 1005.14 1004.86 1005.29 1004.71 1003.66 1005.38 1006.77 1008.52 1009.31 1009.36 1009.46 1009.78 1010.58 1011.54 1012.77 1014.27 1015.52 1015.97 1015.64 1015.44 1014.89 1014.64 1014.63 1014.76 1014.70 1013.95 1013.37 1011.74 1010.62 1010.23 1010.60 1010.90 1011.17 1010.95 1010.60 1010.49
1003.19 1004.43 1004.85 1004.35 1004.21 1005.03 1005.81 1005.49 1005.09 1004.46 1004.20 1004.47 1004.21 1003.61 1004.97 1007.16 1007.59 1008.84 1009.79 1009.69 1010.05 1010.87 1011.69 1012.75 1014.67 1015.38 1015.55 1015.37 1015.29 1015.54 1014.92 1014.72 1014.86 1014.59 1013.96 1013.20 1012.58 1011.20 1011.17 1011.24 1011.27 1011.56 1011.49 1011.20 1010.74
1002.34 1003.27 1003.07 1003.60 1003.86 1004.68 1004.76 1004.54 1004.41 1003.32 1003.66 1004.21 1003.93 1003.27 1003.68 1006.44 1007.80 1008.53 1009.28 1009.75 1010.82 1011.09 1011.98 1013.00 1014.93 1015.93 1016.12 1016.16 1015.91 1015.44 1015.07 1014.88 1014.98 1014.57 1014.55 1013.35 1012.88 1011.88 1011.70 1012.00 1011.97 1011.89 1011.73 1011.45 1010.94
1001.53 1002.50 1002.60 1002.81 1002.98 1003.55 1003.61 1003.51 1003.24 1002.55 1002.44 1003.36 1003.09 1003.17 1003.47 1004.26 1005.17 1006.47 1007.29 1008.63 1010.12 1011.69 1012.59 1013.64 1016.17 1016.79 1017.71 1017.03 1016.52 1016.00 1015.07 1014.76 1014.70 1014.39 1014.43 1013.73 1013.29 1012.34 1012.72 1012.68 1012.81 1012.82 1012.79 1012.37 1011.53
1001.14 1001.11 1001.57 1001.74 1001.85 1002.67 1001.97 1001.66 1001.32 1001.28 1001.83 1001.75 1001.98 1002.09 1003.48 1003.82 1004.48 1005.75 1006.15 1007.85 1009.16 1010.64 1012.57 1014.32 1016.61 1018.48 1019.65 1018.67 1017.89 1017.03 1014.80 1014.14 1013.77 1013.55 1013.54 1013.98 1013.07 1013.75 1013.85 1014.01 1014.14 1014.07 1014.13 1013.67 1012.86
Wind_Speed
12 13 13 10 12 10 10 10 9 8 7 6 7 7 9 11 12 3 5 8 3 3 3 2 2 2 3 3 3 4 4 4 6 7 6 2 1 1 4 3 1 2 2 2 7
15 13 14 12 13 11 5 7 10 8 8 7 7 7 8 11 3 8 10 14 8 3 2 3 3 2 1 4 2 4 5 10 7 4 4 2 1 2 2 1 2 2 2 5 6
16 17 15 13 16 13 9 8 10 9 8 7 6 6 8 7 4 6 7 8 15 6 1 3 3 3 2 1 4 5 7 5 4 5 1 1 2 1 1 4 4 5 2 5 5
19 18 17 16 17 17 10 11 11 11 10 9 7 5 5 2 5 1 10 8 6 7 4 4 4 5 5 5 3 2 6 4 2 2 2 1 4 4 3 2 5 3 0 6 8
18 19 18 17 16 18 14 11 15 14 11 11 9 6 2 1 10 5 9 6 4 4 6 6 4 6 6 5 5 3 3 4 7 4 6 4 5 4 8 10 7 4 2 7 8
18 18 19 20 17 18 16 17 15 14 11 10 10 7 4 4 5 2 8 2 2 3 4 5 6 5 4 3 6 3 4 5 2 3 3 3 5 4 9 5 6 7 9 8 10
20 16 19 21 20 18 17 14 15 13 9 6 7 5 5 14 4 4 4 4 4 2 3 4 2 5 4 2 3 1 4 4 5 5 6 2 9 11 15 2 5 6 6 7 10
19 18 18 20 22 21 19 17 15 15 11 7 6 4 8 5 4 6 8 5 5 4 2 3 4 2 2 1 4 3 2 2 2 8 6 12 17 7 7 6 12 11 9 9 11
18 17 17 19 20 21 21 19 15 16 13 6 3 3 7 4 4 8 4 4 1 1 1 3 4 4 3 5 3 4 4 5 6 10 5 8 3 8 6 8 10 9 8 8 10
19 18 16 17 19 20 21 20 16 10 5 1 0 1 6 4 3 3 5 5 3 4 4 3 4 3 2 6 11 7 5 4 5 1 4 6 10 9 3 5 8 8 8 8 9
21 19 18 15 18 19 17 6 6 3 9 7 5 4 4 2 2 2 4 5 4 5 7 3 4 15 9 7 3 5 3 5 2 0 2 7 10 10 13 5 7 9 10 10 10
21 20 18 19 13 15 14 12 11 6 5 13 9 16 9 4 3 4 8 7 10 17 8 5 21 7 7 8 6 4 4 4 4 4 1 5 14 10 13 10 8 10 10 11 9
21 19 17 18 17 11 14 20 13 5 4 6 20 15 6 8 6 5 12 4 10 17 17 9 4 11 8 5 8 6 9 5 2 6 2 7 16 10 9 10 8 9 11 8 13
21 19 16 15 11 7 17 11 13 9 5 8 11 10 9 4 9 10 9 7 7 15 11 13 9 6 2 10 9 12 7 6 4 4 5 2 11 5 0 8 6 10 10 12 12
20 21 18 19 1 5 2 8 14 6 11 7 9 3 11 17 7 12 8 4 8 8 9 6 7 13 7 8 9 6 7 10 7 6 2 5 4 8 3 5 10 9 10 10 8
20 19 20 12 9 7 7 11 5 10 10 8 8 13 16 19 2 4 7 2 6 6 2 5 1 6 7 5 14 5 5 5 4 5 6 12 9 5 6 8 6 3 3 7 7
22 20 18 7 9 5 7 5 11 12 11 9 11 16 21 16 15 7 17 16 8 11 14 9 6 1 4 7 2 4 7 4 4 6 10 7 8 19 6 5 5 5 7 9 7
23 21 16 9 8 7 7 7 12 7 10 3 12 18 15 17 17 12 18 18 15 3 8 11 6 11 6 6 7 13 7 6 10 7 5 8 9 9 9 16 13 8 8 9 10
24 10 5 6 8 9 9 16 8 5 10 14 17 19 8 15 9 12 12 19 14 8 7 8 7 1 6 4 8 5 10 8 2 2 1 6 8 9 5 4 5 7 8 9 10
11 6 10 9 10 7 10 23 4 8 12 18 10 8 10 21 9 12 15 14 12 16 3 6 2 6 4 4 4 7 5 2 3 3 5 4 6 7 3 1 3 2 6 8 6
7 5 6 11 7 7 11 8 9 10 10 18 6 8 8 19 12 19 18 3 21 13 11 6 4 2 6 7 13 7 5 5 5 5 5 3 7 8 11 10 5 5 7 8 9
3 9 3 13 11 3 10 9 3 11 15 10 6 7 13 21 12 11 13 11 11 14 15 9 4 3 7 1 1 6 11 13 8 7 8 12 9 5 8 4 1 5 7 8 8
5 3 1 11 10 9 4 9 16 7 12 12 6 9 9 16 10 4 8 6 15 17 17 10 6 5 5 3 6 3 5 3 10 11 9 9 7 6 7 7 4 7 12 14 9
4 4 3 8 3 13 14 17 20 10 5 8 3 6 15 11 4 11 13 3 10 9 14 18 3 6 7 4 5 2 2 5 7 8 14 16 19 23 19 16 13 10 8 10 12
4 5 6 5 7 9 7 10 19 10 15 11 4 19 16 8 4 5 5 6 4 12 9 8 7 5 4 4 4 5 5 5 6 14 13 18 19 20 17 8 7 6 8 11 14
4 5 3 6 6 15 18 20 20 20 18 11 13 20 14 14 12 20 12 6 8 4 6 2 1 4 3 3 7 4 7 9 12 16 10 20 20 12 4 6 8 8 10 14 16
4 2 6 8 5 6 17 24 25 15 2 16 19 16 11 14 12 6 10 7 13 11 5 7 7 5 6 4 5 3 15 15 9 8 11 12 11 5 5 9 9 14 13 13 13
Wind_Direction
265 276 275 278 292 307 278 280 294 306 298 311 326 325 331 334 326 332 257 235 230 178 96 71 59 105 79 114 109 142 85 220 221 159 238 354 179 13 303 145 135 186 190 28 117
261 254 273 275 273 273 289 310 279 273 279 295 302 317 335 341 318 265 237 251 255 210 123 152 179 121 132 172 168 128 157 213 204 207 224 178 52 299 20 190 231 280 97 86 125
244 245 237 254 268 264 269 286 302 271 257 264 282 309 330 342 346 251 315 278 225 184 176 159 123 148 195 137 197 171 204 208 233 221 150 239 276 267 166 250 222 206 177 148 158
253 247 239 224 240 251 261 285 291 303 250 248 248 274 326 348 240 17 355 18 157 130 123 133 132 158 188 197 203 201 234 180 260 200 143 211 305 308 209 227 130 59 120 159 186
262 255 245 243 236 231 228 258 272 280 281 240 237 224 86 191 255 331 357 359 75 118 166 166 153 146 183 198 143 210 249 190 260 275 305 320 256 246 265 259 251 287 200 207 209
261 254 243 241 242 239 234 220 249 258 272 245 234 190 132 225 270 33 5 351 43 141 179 157 192 197 187 202 176 217 222 251 263 230 256 242 277 144 266 246 249 232 231 224 219
269 261 250 235 238 237 235 235 234 240 250 268 241 206 217 224 209 308 23 333 301 299 159 205 178 166 156 228 199 189 289 301 213 207 226 132 278 218 241 280 251 237 232 227 231
273 267 263 244 237 229 232 230 232 226 217 231 268 223 252 211 220 279 276 279 266 241 214 180 171 127 166 251 13 169 163 247 256 169 237 146 251 241 244 212 249 256 259 256 254
275 275 272 259 242 230 222 229 228 227 223 193 133 193 254 107 151 229 166 201 204 117 152 117 121 157 98 101 4 341 193 204 306 196 164 193 262 254 169 185 243 256 264 273 282
276 271 271 266 250 236 219 216 227 216 218 51 225 234 219 228 178 185 176 171 166 135 104 124 67 155 138 144 212 205 210 220 202 268 248 239 252 289 244 182 250 275 279 271 266
272 263 264 272 251 235 219 197 186 220 201 195 192 226 104 258 82 141 174 124 161 160 173 181 163 212 184 197 132 143 193 203 248 284 273 247 267 269 277 251 238 259 269 271 266
266 268 258 256 250 245 219 207 191 160 175 230 225 222 232 83 344 193 139 155 185 204 167 146 229 177 163 176 184 153 187 221 288 328 267 316 288 254 263 258 213 235 244 256 270
265 255 258 260 252 246 248 216 150 150 153 203 213 210 195 173 212 238 162 168 188 197 203 206 310 173 149 165 183 209 199 163 196 340 304 339 289 242 242 249 240 234 241 241 243
257 251 253 257 256 234 236 255 171 97 232 197 193 230 191 110 225 198 185 149 193 208 186 228 214 94 103 200 172 223 172 156 195 82 242 101 280 292 163 277 238 242 236 245 249
252 254 243 225 291 199 45 166 136 100 232 163 159 195 162 172 134 193 164 161 168 180 169 198 161 205 203 215 173 223 159 184 171 181 27 227 284 272 276 278 271 251 244 250 247
242 242 240 239 238 231 282 159 121 179 227 170 136 169 158 192 147 95 151 163 147 163 243 201 206 170 204 157 181 162 100 93 104 127 241 224 196 253 190 196 249 249 271 264 267
236 234 239 211 223 182 143 215 206 213 142 155 169 174 174 179 187 155 176 187 169 175 200 194 222 257 146 122 133 153 146 129 183 199 231 169 158 253 274 234 233 250 280 287 288
232 231 228 217 195 170 196 207 228 220 164 176 152 161 178 156 199 173 174 193 209 135 159 189 189 205 199 179 172 193 182 157 190 189 238 154 216 257 213 232 240 265 283 319 310
234 223 198 209 193 191 216 219 212 166 165 155 144 156 160 180 165 174 191 200 199 185 148 172 230 115 198 160 144 193 218 200 42 53 67 196 276 307 209 220 255 282 321 317 333
223 206 221 186 183 184 232 235 235 146 178 164 150 170 158 176 150 170 169 199 189 186 188 187 141 201 179 100 281 160 164 201 172 210 241 236 262 234 64 264 218 343 314 309 309
181 190 230 162 163 205 224 228 191 212 176 201 159 144 167 168 177 180 177 163 194 173 163 146 97 33 116 190 195 184 206 206 176 195 206 248 248 208 209 226 261 326 332 322 306
137 183 183 146 200 186 223 223 211 181 194 252 195 108 166 168 159 177 190 193 177 144 182 192 125 180 207 238 132 213 224 212 210 205 236 248 244 182 149 162 253 294 285 268 253
155 136 154 160 198 211 251 234 228 197 197 202 246 136 174 158 145 155 173 184 162 170 169 154 184 158 344 351 4 151 197 197 241 265 221 236 250 273 325 319 276 275 306 312 298
113 171 214 200 140 182 207 229 219 208 247 197 220 138 124 145 12 165 167 97 169 161 159 152 124 184 191 183 137 174 200 219 212 237 247 250 270 274 273 284 295 312 301 281 288
158 205 198 193 175 217 204 222 225 214 202 201 243 165 148 123 100 132 132 105 100 181 155 144 163 148 208 162 155 194 210 185 196 239 243 256 248 259 268 292 283 269 293 296 288
154 183 201 155 166 202 213 229 238 199 168 201 189 167 165 147 180 167 143 121 162 121 141 193 131 104 292 246 191 237 255 234 230 245 243 249 261 269 352 350 340 327 332 314 306
202 173 122 233 184 223 215 220 227 171 244 172 186 153 143 170 134 111 104 103 146 142 133 123 127 89 252 347 91 280 234 229 214 202 212 222 242 52 339 333 333 329 327 322 325